When you browse on this site, cookies collect data to enhance your experience and personalize the content and advertising you see.
Visit our Privacy Policy to learn more. By continuing to use the site, you agree to this use of cookies and data.
  • In Latvia
  • List of Countries
  • For 7 days
  • Water Temperature
  • Weather Map
  • Weather Widgets
  • user-avatar
    Login

    Hourly Weather Lvovka

    Today, 19 August, Monday

    Time Temperature Precipitation Wind Pressure Humidity
    00:00 +24°C° 0 mm 3 mps 750 mmHg 43%
    01:00 +22°C° 0 mm 3 mps 750 mmHg 44%
    02:00 +22°C° 0 mm 3 mps 750 mmHg 45%
    03:00 +21°C° 0 mm 3 mps 751 mmHg 46%
    04:00 +21°C° 0 mm 3 mps 751 mmHg 47%
    05:00 +22°C° 0 mm 3 mps 751 mmHg 48%
    06:00 +22°C° 0 mm 3 mps 751 mmHg 49%
    07:00 +25°C° 0 mm 3 mps 751 mmHg 48%
    08:00 +26°C° 0 mm 4 mps 751 mmHg 46%
    09:00 +27°C° 0 mm 4 mps 751 mmHg 44%
    10:00 +29°C° 0 mm 5 mps 751 mmHg 41%
    11:00 +32°C° 0 mm 5 mps 751 mmHg 37%
    12:00 +33°C° 0 mm 5 mps 751 mmHg 34%
    13:00 +34°C° 0 mm 5 mps 751 mmHg 33%
    14:00 +34°C° 0 mm 5 mps 751 mmHg 32%
    15:00 +35°C° 0 mm 5 mps 751 mmHg 30%
    16:00 +33°C° 0 mm 3 mps 751 mmHg 35%
    17:00 +31°C° 0 mm 2 mps 751 mmHg 40%
    18:00 +29°C° 0 mm 1 mps 751 mmHg 45%
    19:00 +28°C° 0 mm 1 mps 751 mmHg 46%
    20:00 +26°C° 0 mm 1 mps 751 mmHg 47%
    21:00 +23°C° 0 mm 0 mps 751 mmHg 48%
    22:00 +23°C° 0 mm 0 mps 751 mmHg 48%
    23:00 +22°C° 0 mm 0 mps 751 mmHg 49%

    Tomorrow, 20 August, Tuesday

    Time Temperature Precipitation Wind Pressure Humidity
    00:00 +24°C° 0 mm 1 mps 751 mmHg 49%
    01:00 +24°C° 0 mm 1 mps 751 mmHg 57%
    02:00 +23°C° 0 mm 2 mps 751 mmHg 64%
    03:00 +21°C° 0 mm 3 mps 752 mmHg 72%
    04:00 +21°C° 0 mm 2 mps 752 mmHg 76%
    05:00 +21°C° 0 mm 2 mps 752 mmHg 81%
    06:00 +21°C° 0 mm 2 mps 752 mmHg 85%
    07:00 +24°C° 0 mm 3 mps 752 mmHg 80%
    08:00 +25°C° 0 mm 3 mps 752 mmHg 74%
    09:00 +26°C° 0 mm 3 mps 752 mmHg 68%
    10:00 +27°C° 0 mm 3 mps 752 mmHg 64%
    11:00 +28°C° 0 mm 3 mps 752 mmHg 60%
    12:00 +29°C° 0 mm 3 mps 752 mmHg 56%
    13:00 +29°C° 0 mm 3 mps 752 mmHg 56%
    14:00 +29°C° 0 mm 3 mps 752 mmHg 55%
    15:00 +29°C° 0 mm 4 mps 752 mmHg 54%
    16:00 +28°C° 0 mm 3 mps 752 mmHg 58%
    17:00 +27°C° 0 mm 3 mps 752 mmHg 62%
    18:00 +26°C° 0 mm 3 mps 752 mmHg 66%
    19:00 +24°C° 0 mm 3 mps 752 mmHg 69%
    20:00 +22°C° 0 mm 3 mps 752 mmHg 72%
    21:00 +21°C° 0 mm 2 mps 753 mmHg 75%
    22:00 +20°C° 0 mm 2 mps 753 mmHg 77%
    23:00 +20°C° 0 mm 2 mps 753 mmHg 80%

    Day after tomorrow, 21 August, Wednesday

    Time Temperature Precipitation Wind Pressure Humidity
    00:00 +19°C° 0 mm 2 mps 753 mmHg 82%
    01:00 +19°C° 0 mm 2 mps 753 mmHg 85%
    02:00 +18°C° 0 mm 2 mps 753 mmHg 88%
    03:00 +18°C° 0 mm 2 mps 753 mmHg 91%
    04:00 +18°C° 0 mm 3 mps 753 mmHg 91%
    05:00 +18°C° 0 mm 3 mps 753 mmHg 90%
    06:00 +19°C° 0 mm 3 mps 753 mmHg 89%
    07:00 +20°C° 0 mm 3 mps 753 mmHg 82%
    08:00 +22°C° 0 mm 3 mps 754 mmHg 75%
    09:00 +24°C° 0 mm 3 mps 754 mmHg 69%
    10:00 +25°C° 0 mm 4 mps 754 mmHg 65%
    11:00 +26°C° 0 mm 4 mps 754 mmHg 61%
    12:00 +27°C° 0 mm 4 mps 753 mmHg 58%
    13:00 +27°C° 0 mm 4 mps 753 mmHg 58%
    14:00 +27°C° 0 mm 5 mps 753 mmHg 57%
    15:00 +27°C° 0 mm 5 mps 753 mmHg 57%
    16:00 +26°C° 0 mm 4 mps 753 mmHg 61%
    17:00 +26°C° 0 mm 4 mps 753 mmHg 65%
    18:00 +25°C° 0 mm 3 mps 753 mmHg 69%
    19:00 +24°C° 0 mm 3 mps 753 mmHg 74%
    20:00 +21°C° 0 mm 3 mps 753 mmHg 79%
    21:00 +20°C° 0 mm 2 mps 753 mmHg 84%
    22:00 +20°C° 0 mm 2 mps 753 mmHg 86%
    23:00 +19°C° 0 mm 2 mps 753 mmHg 87%

    22 August, Thursday

    Time Temperature Precipitation Wind Pressure Humidity
    00:00 +19°C° 0 mm 2 mps 753 mmHg 89%
    01:00 +19°C° 0 mm 2 mps 754 mmHg 90%
    02:00 +18°C° 0 mm 2 mps 754 mmHg 91%
    03:00 +18°C° 0 mm 2 mps 754 mmHg 92%
    04:00 +19°C° 0 mm 2 mps 754 mmHg 90%
    05:00 +19°C° 0 mm 2 mps 754 mmHg 89%
    06:00 +19°C° 0 mm 2 mps 753 mmHg 87%
    07:00 +21°C° 0 mm 2 mps 754 mmHg 80%
    08:00 +23°C° 0 mm 2 mps 754 mmHg 73%
    09:00 +25°C° 0 mm 2 mps 754 mmHg 66%
    10:00 +26°C° 0 mm 2 mps 754 mmHg 62%
    11:00 +27°C° 0 mm 2 mps 754 mmHg 59%
    12:00 +28°C° 0 mm 2 mps 753 mmHg 55%
    13:00 +28°C° 0 mm 2 mps 753 mmHg 54%
    14:00 +28°C° 0 mm 2 mps 753 mmHg 53%
    15:00 +28°C° 0 mm 2 mps 753 mmHg 52%
    16:00 +28°C° 0 mm 2 mps 753 mmHg 57%
    17:00 +27°C° 0 mm 2 mps 752 mmHg 61%
    18:00 +26°C° 0 mm 2 mps 752 mmHg 66%
    19:00 +25°C° 0 mm 1 mps 752 mmHg 69%
    20:00 +23°C° 0 mm 1 mps 752 mmHg 72%
    21:00 +22°C° 0 mm 1 mps 752 mmHg 76%
    22:00 +22°C° 0 mm 1 mps 752 mmHg 77%
    23:00 +21°C° 0 mm 1 mps 752 mmHg 78%

    23 August, Friday

    Time Temperature Precipitation Wind Pressure Humidity
    00:00 +21°C° 0 mm 1 mps 752 mmHg 79%
    01:00 +21°C° 0 mm 1 mps 752 mmHg 81%
    02:00 +20°C° 0 mm 1 mps 752 mmHg 82%
    03:00 +20°C° 0 mm 1 mps 752 mmHg 84%
    04:00 +20°C° 0 mm 1 mps 752 mmHg 82%
    05:00 +21°C° 0 mm 1 mps 752 mmHg 81%
    06:00 +21°C° 0 mm 1 mps 752 mmHg 80%
    07:00 +23°C° 0 mm 1 mps 752 mmHg 73%
    08:00 +25°C° 0 mm 1 mps 752 mmHg 67%
    09:00 +27°C° 0 mm 1 mps 752 mmHg 60%
    10:00 +28°C° 0 mm 1 mps 751 mmHg 57%
    11:00 +29°C° 0 mm 1 mps 751 mmHg 53%
    12:00 +30°C° 0 mm 1 mps 751 mmHg 50%
    13:00 +30°C° 0 mm 1 mps 751 mmHg 48%
    14:00 +30°C° 0 mm 1 mps 750 mmHg 47%
    15:00 +31°C° 0 mm 1 mps 750 mmHg 46%
    16:00 +29°C° 0 mm 1 mps 750 mmHg 51%
    17:00 +28°C° 0 mm 1 mps 750 mmHg 56%
    18:00 +27°C° 0 mm 1 mps 750 mmHg 61%
    19:00 +26°C° 0 mm 1 mps 750 mmHg 65%
    20:00 +25°C° 0 mm 1 mps 749 mmHg 68%
    21:00 +22°C° 0 mm 0 mps 749 mmHg 71%
    22:00 +21°C° 0.2 mm 0 mps 749 mmHg 74%
    23:00 +21°C° 0.2 mm 0 mps 749 mmHg 76%

    24 August, Saturday

    Time Temperature Precipitation Wind Pressure Humidity
    00:00 +20°C° 0.2 mm 0 mps 749 mmHg 78%
    01:00 +20°C° 0.1 mm 0 mps 749 mmHg 80%
    02:00 +19°C° 0.1 mm 0 mps 748 mmHg 83%
    03:00 +21°C° 0.1 mm 1 mps 748 mmHg 85%
    04:00 +19°C° 0.1 mm 0 mps 748 mmHg 84%
    05:00 +19°C° 0.1 mm 0 mps 747 mmHg 84%
    06:00 +20°C° 0.1 mm 0 mps 747 mmHg 84%
    07:00 +21°C° 0.2 mm 0 mps 747 mmHg 78%
    08:00 +23°C° 0.2 mm 0 mps 746 mmHg 72%
    09:00 +26°C° 0.2 mm 1 mps 746 mmHg 66%
    10:00 +26°C° 1.1 mm 2 mps 746 mmHg 66%
    11:00 +26°C° 1.1 mm 3 mps 745 mmHg 66%
    12:00 +26°C° 1.1 mm 4 mps 745 mmHg 67%
    13:00 +25°C° 1 mm 5 mps 745 mmHg 73%
    14:00 +22°C° 1 mm 5 mps 744 mmHg 78%
    15:00 +21°C° 1 mm 6 mps 744 mmHg 84%
    16:00 +20°C° 1 mm 5 mps 744 mmHg 86%
    17:00 +19°C° 1 mm 4 mps 744 mmHg 87%
    18:00 +19°C° 1 mm 3 mps 744 mmHg 89%
    19:00 +18°C° 0 mm 4 mps 744 mmHg 89%
    20:00 +17°C° 0 mm 4 mps 744 mmHg 89%
    21:00 +15°C° 0 mm 5 mps 744 mmHg 90%
    22:00 +15°C° 0 mm 6 mps 744 mmHg 89%
    23:00 +15°C° 0 mm 6 mps 744 mmHg 89%
    Show more